Regional Weather Roundup
Issued by NWS

Home | Current Version | Previous Version | Graphics & Text | Print | Product List | Glossary On
Versions: 1 2 3 4 5 6 7 8 9 10 11 12 13 14 15 16 17 18 19 20 21 22 23 24 25 26 27 28 29 30 31 32 33 34 35 36 37 38 39 40 41 42 43 44 45 46 47 48 49 50
000
ASUS43 KLOT 160706
RWRIL

ILLINOIS REGIONAL WEATHER ROUNDUP
NATIONAL WEATHER SERVICE CHICAGO/ROMEOVILLE IL
200 AM CDT WED APR 16 2014

NOTE: "FAIR" INDICATES FEW OR NO CLOUDS BELOW 12,000 FEET WITH NO
SIGNIFICANT WEATHER AND/OR OBSTRUCTIONS TO VISIBILITY.

* THESE STATIONS ARE NOT UNDER NWS QUALITY CONTROL. THEY ALSO MAY NOT
  REPORT WEATHER SUCH AS PRECIPITATION OR FOG.

ILZ001-002-007-009-015-016-024-160800-
NORTHWEST ILLINOIS

CITY           SKY/WX    TMP DP  RH WIND       PRES   REMARKS
MOLINE         CLEAR     29  19  66 E6        30.15F WCI  23
STERLING*      CLEAR     28  21  74 SE6       30.18S WCI  22
SAVANNA*       CLEAR     29  19  65 E6        30.17S WCI  23
$$

ILZ003-004-008-010-011-017-018-160800-
NORTH CENTRAL ILLINOIS

CITY           SKY/WX    TMP DP  RH WIND       PRES   REMARKS
ROCKFORD       CLEAR     28  21  75 SE5       30.21S WCI  23
FREEPORT*      CLEAR     27  23  85 SE5       30.19S WCI  21
ROCHELLE*      CLEAR     27  23  84 SE8       30.20S WCI  19
DE KALB*       CLEAR     26  20  77 SE7       30.21R WCI  19
$$

ILZ005-006-012>014-019>023-160800-
NORTHEAST ILLINOIS

CITY           SKY/WX    TMP DP  RH WIND       PRES   REMARKS
CHICAGO-OHARE  CLEAR     29  19  66 S6        30.22R WCI  23
CHICAGO-MIDWAY CLEAR     32  21  64 S6        30.23S WCI  26
AURORA         CLEAR     28  21  75 SE6       30.22R WCI  22
LANSING*       CLEAR     28  21  76 SE3       30.24S
WAUKEGAN       CLEAR     24  19  81 CALM      30.22R
DUPAGE AIRPORT CLEAR     27  20  75 S6        30.21R WCI  20
KANKAKEE*      CLEAR     29  23  78 SE5       30.25R WCI  24
WHEELING       CLEAR     28  22  78 CALM      30.24R
MORRIS*        CLEAR     31  21  67 S6        30.23R WCI  25
NORTHERLY ISL    N/A     33  20  59 S3          N/A
$$

LMZ740>746-160800-
SOUTHERN LAKE MICHIGAN

STATION/POSITION SKY/WX   TEMP    WIND        PRES    VSBY  WAVE
                          AIR SEA DIR/SP/G                  HT/PER
                          (F)     (DEG/KT/KT) (MB)    (MI)  (FT/S)
WAUKEGAN HARBOR            34     220/  8/  9 1024.4S
HARRISON CRIB              35     200/ 12/ 14   N/A
BURNHAM HARBOR             34     190/  4/  6   N/A
CALUMET HARBOR             32     170/  6/  8 1024.5R
MICHIGAN CITY              30     130/  8/ 10   N/A
$$

ILZ025>027-034>036-040-047-049-050-058-095>099-160800-
WEST-CENTRAL ILLINOIS

CITY           SKY/WX    TMP DP  RH WIND       PRES   REMARKS
QUINCY         CLEAR     37  22  54 SE9       30.13F WCI  30
GALESBURG*     CLEAR     32  24  74 SE6       30.15F WCI  26
MACOMB*        CLEAR     32  26  77 SE9       30.17F WCI  25
JACKSONVILLE*  CLEAR     36  24  60 SE9       30.19F WCI  29
PITTSFIELD*    CLEAR     35  25  68 SE7       30.18S WCI  29
$$

ILZ028>032-037-038-041>044-048-051>054-059>061-160800-
CENTRAL ILLINOIS

CITY           SKY/WX    TMP DP  RH WIND       PRES   REMARKS
PONTIAC        CLEAR     32  27  80 SE7       30.23S WCI  26
BLOOMINGTON    CLEAR     28  21  75 SE8       30.22S WCI  20
DECATUR        CLEAR     32  23  69 S7        30.23S WCI  26
PEORIA         CLEAR     34  20  56 SE7       30.19F WCI  28
LACON*         CLEAR     32  22  66 SE8       30.20S WCI  25
LINCOLN*       CLEAR     32  26  78 S3        30.22S
SPRINGFIELD    CLEAR     35  23  61 S10       30.21S WCI  27
TAYLORVILLE    CLEAR     32  25  74 S9        30.22S WCI  24
$$

ILZ033-039-045-046-055>057-062-063-160800-
EAST-CENTRAL ILLINOIS

CITY           SKY/WX    TMP DP  RH WIND       PRES   REMARKS
CHAMPAIGN      CLEAR     30  25  81 SE7       30.24R WCI  23
RANTOUL*       CLEAR     32  26  78 CALM      30.25S
MATTOON        CLEAR     32  24  72 S8        30.24R WCI  25
PARIS*         CLEAR     31  26  80 CALM      30.27S
$$

ILZ079-100>102-160800-
SOUTHWEST ILLINOIS

CITY           SKY/WX    TMP DP  RH WIND       PRES   REMARKS
ALTON          CLEAR     36  23  59 S8        30.23S WCI  29
BELLEVILLE     CLEAR     33  26  72 SE7       30.24R WCI  27
CAHOKIA*       CLEAR     37  25  61 S8        30.23S WCI  31
SPARTA*        CLEAR     36  25  64 S7        30.26S WCI  30
$$

ILZ064>066-069>071-074>076-080>082-084>086-088>090-092>094-160800-
SOUTH-CENTRAL ILLINOIS

CITY           SKY/WX    TMP DP  RH WIND       PRES   REMARKS
CARBONDALE     PTCLDY    34  24  67 S3        30.27R
CAIRO*         CLEAR     40  28  62 SE6       30.28S
MARION         PTCLDY    34  27  75 S3        30.28R
MT. VERNON     PTCLDY    28  18  64 CALM      30.27R
CENTRALIA*       N/A     33  25  71 SE6       30.25S WCI  28
SALEM*         CLEAR     36  26  67 SE3       30.26R
METROPOLIS*    PTCLDY    33  28  83 CALM      30.28R
$$

ILZ067-068-072-073-078-083-087-091-160800-
SOUTHEAST ILLINOIS

CITY           SKY/WX    TMP DP  RH WIND       PRES   REMARKS
FLORA*         CLEAR     30  25  83 SE5       30.27S WCI  25
FAIRFIELD*     PTCLDY    34  28  80 CALM      30.27R
HARRISBURG*    PTCLDY    33  31  90 SE3       30.29R
ROBINSON*      CLEAR     31  29  92 CALM      30.30R
CARMI*         PTCLDY    36  32  85 E6        30.27S WCI  31
$$

ABBREVIATIONS USED IN REMARKS
   TC - TEMPERATURE IN CELSIUS
  WCI - WIND CHILL INDEX
   HX - HEAT INDEX
  VSB - VISIBILITY
$$




USA.gov is the U.S. government's official web portal to all federal, state and local government web resources and services.